Date,TemperatureHighF,TemperatureAvgF,TemperatureLowF,DewpointHighF,DewpointAvgF,DewpointLowF,HumidityHigh,HumidityAvg,HumidityLow,PressureMaxIn,PressureMinIn,WindSpeedMaxMPH,WindSpeedAvgMPH,GustSpeedMaxMPH,PrecipitationSumIn
2013-1-1,35.6,32.0,25.2,24.8,16.0,8.8,69,52,44,29.80,29.66,28,9,34,0.00
2013-1-2,27.0,18.9,11.2,15.9,7.7,2.3,71,61,52,29.98,29.83,29,6,29,0.00
2013-1-3,24.4,14.2,2.1,2.0,-3.2,-7.0,67,47,28,30.07,29.95,17,4,17,0.00
2013-1-4,36.5,31.1,20.2,23.1,20.5,14.7,79,65,54,29.90,29.74,23,6,24,0.00
2013-1-5,40.3,31.6,20.3,23.8,19.5,15.6,84,62,39,30.20,29.77,18,4,25,0.00
2013-1-6,41.0,29.8,20.9,27.0,23.1,16.7,86,76,56,30.17,29.87,15,2,20,0.00
2013-1-7,35.6,31.6,24.9,27.1,21.5,14.8,88,68,43,30.35,29.89,17,3,20,0.00
2013-1-8,44.3,38.5,27.0,27.6,26.2,21.4,81,62,50,30.27,30.19,24,6,24,0.00
2013-1-9,42.6,34.6,21.9,33.4,26.4,19.7,92,73,58,30.34,29.94,13,2,14,0.00
2013-1-10,45.5,41.3,37.8,27.3,23.9,22.0,58,50,41,30.41,29.96,26,9,35,0.00
2013-1-11,38.8,33.9,23.5,31.2,26.2,20.2,88,74,66,30.45,30.22,7,1,7,0.00
2013-1-14,59.4,53.0,44.6,50.4,43.6,33.4,92,72,44,30.09,29.77,21,6,24,0.00
2013-1-15,39.3,36.8,32.5,25.2,24.2,23.1,71,60,53,30.25,30.16,9,2,10,0.00
2013-1-16,31.3,30.1,28.0,29.8,28.3,25.8,94,93,90,30.08,29.76,8,2,9,0.07
2013-1-17,39.9,34.9,28.5,32.1,27.6,19.6,92,75,57,30.03,29.80,20,4,22,0.37
2013-1-18,23.2,19.3,15.4,0.3,-2.5,-6.1,48,38,29,30.38,30.13,22,7,26,0.00
2013-1-19,46.5,35.5,20.3,30.6,20.8,4.6,71,55,40,30.32,29.81,18,6,26,0.00
2013-1-20,51.7,39.8,27.0,31.4,24.4,9.6,72,55,33,29.85,29.47,31,9,39,0.00
2013-1-21,26.2,23.4,19.1,17.8,6.9,2.4,85,50,41,30.03,29.87,13,5,16,0.00
2013-1-22,22.7,19.6,15.6,15.9,5.7,-2.7,90,56,37,29.95,29.72,21,8,22,0.00
2013-1-23,13.8,10.4,6.7,-1.1,-9.2,-14.0,63,41,28,30.08,29.99,24,8,28,0.00
2013-1-24,17.9,8.3,-0.1,-8.0,-10.1,-12.3,61,44,26,30.07,29.99,26,7,31,0.00
2013-1-25,22.2,16.1,6.2,-5.8,-8.2,-10.4,48,33,25,30.24,30.07,18,6,20,0.00
2013-1-26,22.5,15.8,10.3,9.5,0.5,-8.9,83,54,27,30.17,29.94,16,6,23,0.00
2013-1-27,29.0,19.3,11.2,1.8,-0.7,-6.0,62,43,27,30.40,30.16,18,6,24,0.00
2013-1-28,28.5,22.5,16.5,22.2,8.0,-0.7,91,56,31,30.39,30.03,12,2,12,0.00
2013-1-29,31.9,28.6,23.7,28.6,25.3,21.2,91,87,84,30.13,30.03,6,2,6,0.07
2013-1-30,59.9,50.1,35.3,55.4,47.8,34.0,96,92,84,29.93,29.51,24,6,25,0.13
2013-1-31,59.3,46.1,34.8,56.9,33.9,17.8,92,64,39,29.40,28.90,36,13,37,0.47
2013-2-1,31.2,27.9,24.9,11.9,7.3,5.0,56,41,34,29.90,29.62,27,9,27,0.00
2013-2-4,27.6,24.3,20.1,13.7,8.9,3.6,73,52,39,29.80,29.68,29,10,29,0.00
2013-2-5,27.3,24.0,19.8,16.0,10.3,7.1,67,56,48,29.96,29.88,11,3,11,0.00
2013-2-6,36.7,30.9,22.2,24.4,19.8,12.4,91,65,46,30.08,29.89,21,6,23,0.02
2013-2-7,27.0,22.6,15.2,2.5,0.5,-1.3,54,38,31,30.46,30.36,16,4,16,0.00
2013-2-8,30.5,26.5,21.4,27.4,23.5,19.0,94,88,77,30.29,29.81,24,8,25,0.00
2013-2-9,20.3,17.1,14.0,16.5,10.7,0.9,91,77,55,30.13,29.54,25,11,38,0.00
2013-2-10,39.8,21.3,5.1,14.8,3.1,-3.1,81,50,17,30.33,30.13,12,3,22,0.00
2013-2-11,39.8,31.2,19.4,38.2,27.6,12.8,95,87,67,30.18,29.62,8,1,9,0.25
2013-2-12,42.7,39.1,34.0,28.1,27.3,25.4,76,63,54,29.71,29.59,29,10,32,0.00
2013-2-13,41.5,36.0,26.0,24.5,23.2,20.4,81,60,48,29.80,29.67,14,4,15,0.00
2013-2-14,43.6,35.8,28.3,25.4,21.4,19.3,80,57,39,29.91,29.63,15,3,15,0.00
2013-2-15,51.2,42.6,30.0,34.2,31.2,27.1,91,66,49,29.93,29.82,19,6,22,0.00
2013-2-16,36.5,32.6,28.0,29.1,25.1,15.7,93,75,53,29.88,29.66,10,4,17,0.02
2013-2-17,28.1,20.3,15.7,17.5,9.1,-0.4,87,63,43,29.66,29.33,27,12,38,0.00
2013-2-18,29.7,23.5,13.3,1.4,-1.0,-4.7,54,35,23,30.02,29.79,33,12,36,0.00
2013-2-19,45.5,38.1,23.4,38.4,24.1,6.7,90,58,45,30.06,29.67,15,5,17,0.03
2013-2-20,40.6,32.2,26.7,39.0,21.0,10.0,94,65,42,29.64,29.46,27,10,29,0.00
2013-2-21,30.5,26.7,22.9,13.0,11.1,8.8,61,51,46,29.96,29.73,27,11,27,0.00
2013-2-22,37.2,32.4,23.1,23.2,19.4,16.7,82,59,48,30.33,30.25,15,5,15,0.00
2013-2-25,38.9,34.3,28.9,31.1,28.5,24.9,92,79,68,30.13,29.94,8,2,10,0.13
2013-2-26,40.6,36.4,26.6,34.0,28.5,25.1,95,74,59,30.27,30.20,15,5,15,0.00
2013-2-27,39.9,38.2,35.4,37.8,36.1,33.6,93,92,91,29.93,29.60,31,14,37,1.17
2013-2-28,45.6,38.6,32.2,37.3,33.7,30.4,94,83,70,29.59,29.47,7,2,9,0.01
2013-3-1,38.8,36.9,30.8,31.6,28.6,26.8,92,72,64,29.61,29.50,14,5,15,0.00
2013-3-2,40.2,35.6,29.8,29.0,26.3,24.1,80,69,61,29.61,29.55,12,4,16,0.00
2013-3-3,38.2,33.4,30.1,31.8,27.2,23.6,89,78,70,29.58,29.50,10,4,17,0.00
2013-3-4,37.4,33.8,28.7,26.4,22.6,20.0,81,63,54,29.61,29.51,27,10,27,0.00
2013-3-5,42.9,35.4,29.7,31.3,25.2,21.1,79,66,56,29.97,29.68,17,6,22,0.00
2013-3-6,38.4,36.0,33.0,33.6,31.2,29.2,91,83,71,30.06,30.00,32,11,32,0.11
2013-3-7,31.8,30.7,29.5,29.5,27.8,25.7,92,89,83,29.99,29.97,26,10,28,0.05
2013-3-8,38.7,31.7,27.8,30.5,27.5,25.6,94,85,60,30.04,29.89,20,6,22,0.08
2013-3-11,53.2,44.6,33.9,39.1,34.5,30.4,87,69,50,30.20,30.09,14,6,16,0.00
2013-3-12,55.8,51.3,44.3,50.6,47.8,42.7,94,88,79,30.00,29.68,22,8,25,0.15
2013-3-13,49.2,44.5,35.9,33.7,28.1,19.0,83,54,33,29.72,29.64,20,8,21,0.00
2013-3-14,33.3,30.7,26.0,16.9,13.0,8.6,56,48,40,29.73,29.64,24,10,27,0.00
2013-3-15,39.4,30.8,18.2,23.9,10.2,3.5,61,43,26,29.81,29.56,19,7,22,0.00
2013-3-18,36.7,29.2,16.3,20.7,8.2,1.1,65,42,25,30.40,30.21,15,4,15,0.00
2013-3-19,32.8,31.7,29.7,31.3,30.2,28.5,95,94,93,29.95,29.56,24,9,28,0.33
2013-3-20,36.3,31.8,24.3,21.8,19.9,17.7,85,62,47,29.72,29.66,27,10,29,0.12
2013-3-21,35.9,30.4,20.1,26.9,19.8,14.6,90,66,44,29.74,29.56,11,2,11,0.12
2013-3-22,38.2,34.0,26.2,20.3,18.2,15.1,71,53,42,29.64,29.57,21,7,21,0.03
2013-3-23,41.8,32.9,26.2,22.0,18.5,15.7,75,57,35,29.73,29.57,24,7,30,0.00
2013-3-24,44.5,36.9,30.5,28.9,22.7,18.9,80,57,43,29.75,29.67,15,5,20,0.00
2013-3-25,39.9,36.7,29.8,31.7,29.3,23.8,78,74,68,29.67,29.47,26,7,28,0.00
2013-3-26,48.8,39.8,33.8,28.8,23.9,18.0,77,55,30,29.68,29.48,15,5,17,0.00
2013-3-27,51.6,45.9,28.7,26.6,24.0,21.6,75,43,33,29.78,29.67,24,7,32,0.00
2013-3-28,45.8,42.4,35.6,34.7,31.8,28.8,88,67,52,29.95,29.85,12,3,16,0.02
2013-3-29,54.1,48.1,31.5,34.6,32.0,27.5,90,55,38,29.98,29.90,20,5,21,0.01
2013-3-30,54.6,44.6,33.4,32.4,23.3,12.7,80,48,20,30.04,29.93,13,4,22,0.00
2013-3-31,58.2,43.3,25.1,37.9,25.7,20.7,85,54,24,30.07,29.69,16,4,25,0.01
2013-4-1,60.6,48.2,40.5,41.7,38.9,22.4,94,73,44,29.70,29.44,29,7,31,0.11
2013-4-2,37.6,34.2,29.0,14.4,11.5,8.2,51,39,30,29.85,29.75,31,12,34,0.00
2013-4-3,44.0,35.0,28.5,15.9,11.4,6.9,53,39,22,29.99,29.86,27,11,30,0.00
2013-4-4,54.4,45.3,28.9,19.2,13.9,9.2,58,30,19,30.24,29.98,19,6,22,0.00
2013-4-5,58.9,49.3,37.3,28.9,24.9,19.4,66,41,23,29.88,29.56,21,6,21,0.00
2013-4-6,44.4,35.9,28.4,24.1,9.6,-0.1,58,36,17,30.27,29.82,22,7,27,0.00
2013-4-7,54.1,40.4,24.2,38.7,25.0,12.4,78,56,34,30.27,29.94,25,6,34,0.00
2013-4-8,64.3,51.5,42.0,41.3,38.1,33.8,91,63,33,30.05,29.89,15,4,18,0.00
2013-4-9,68.0,54.6,44.5,50.9,43.3,38.2,93,68,43,30.04,29.80,25,6,28,0.05
2013-4-10,60.2,52.0,44.5,47.7,44.7,41.4,93,77,63,29.93,29.80,13,4,16,0.09
2013-4-11,51.1,46.2,42.7,43.1,36.8,25.4,94,72,45,30.04,29.88,12,4,14,0.08
2013-4-12,38.1,36.4,35.1,34.3,32.1,28.7,93,85,71,30.12,29.78,31,9,31,0.28
2013-4-13,50.9,40.8,33.7,38.2,34.8,31.4,93,80,55,29.87,29.70,15,4,18,0.14
2013-4-14,51.2,44.2,36.4,38.8,31.7,25.6,91,64,39,30.15,29.85,18,5,25,0.00
2013-4-15,55.2,47.3,30.9,37.3,32.9,27.8,88,58,40,30.33,30.25,19,6,20,0.00
2013-4-16,62.4,55.6,40.4,47.0,41.9,36.0,88,61,49,30.34,30.03,27,10,27,0.00
2013-4-17,63.9,58.4,51.9,40.5,32.6,27.4,64,39,27,30.22,30.07,21,6,22,0.01
2013-4-18,60.6,49.7,35.1,37.2,32.4,27.4,82,53,35,30.38,30.16,19,7,20,0.00
2013-4-19,73.4,66.7,56.6,61.4,58.6,54.9,94,76,60,29.95,29.66,26,10,30,0.00
2013-4-20,66.1,52.4,42.8,61.7,39.8,22.7,93,65,38,30.16,29.54,22,8,28,0.44
2013-4-21,51.3,40.8,32.1,30.5,22.2,17.4,79,49,27,30.63,30.15,19,5,24,0.07
2013-4-22,47.6,39.9,29.1,33.5,28.6,21.3,92,66,36,30.70,30.58,24,7,29,0.01
2013-4-23,40.3,39.5,37.7,38.3,37.4,34.0,93,92,84,30.44,30.18,18,5,18,0.02
2013-4-24,74.7,61.1,41.9,51.7,44.7,37.3,93,59,27,29.93,29.72,18,6,20,0.00
2013-4-25,62.9,56.0,47.1,38.5,31.1,23.3,71,41,25,30.12,29.95,24,7,24,0.03
2013-4-26,56.4,50.5,39.1,38.5,34.1,28.4,80,55,40,30.38,30.30,20,7,21,0.00
2013-4-27,60.7,49.9,35.1,39.9,35.5,32.5,94,61,37,30.38,30.23,16,3,18,0.00
2013-4-28,65.0,52.7,36.9,41.5,35.3,26.7,91,55,32,30.29,30.16,25,5,26,0.00
2013-4-29,67.1,56.3,46.4,48.2,37.5,25.3,83,52,27,30.23,30.12,20,4,23,0.00
2013-4-30,64.3,53.3,41.9,38.1,29.3,15.2,75,44,17,30.32,30.19,16,3,19,0.00
2013-5-1,64.5,52.4,36.0,38.4,33.7,27.2,87,54,27,30.42,30.31,18,3,19,0.00
2013-5-2,75.4,53.8,40.1,45.8,39.5,36.0,88,62,27,30.44,30.29,22,4,26,0.00
2013-5-3,56.6,48.3,41.0,44.0,39.6,36.5,86,72,60,30.48,30.32,22,5,23,0.00
2013-5-4,57.7,46.8,36.4,44.3,37.0,16.0,94,72,24,30.33,30.24,23,4,23,0.00
2013-5-5,55.5,45.4,33.1,41.4,37.1,31.3,94,74,53,30.29,30.20,18,4,20,0.00
2013-5-6,66.3,48.6,33.7,48.8,41.9,31.9,96,80,43,30.25,30.09,18,3,20,0.00
2013-5-7,72.9,60.7,42.5,58.9,50.8,40.7,95,72,48,30.13,30.03,19,4,20,0.00
2013-5-8,69.4,59.8,51.4,60.9,55.5,49.5,95,86,71,30.15,29.99,22,5,22,0.04
2013-5-9,65.6,57.9,55.2,59.4,55.9,53.5,96,93,77,30.00,29.84,12,2,13,0.69
2013-5-10,77.0,63.1,52.9,59.1,55.6,51.8,96,78,46,29.91,29.84,15,3,16,0.07
2013-5-11,69.4,63.3,57.7,60.8,57.5,53.5,92,82,68,29.86,29.64,22,5,25,0.01
2013-5-12,69.3,59.8,48.5,58.8,49.7,28.9,94,72,36,29.76,29.50,25,4,29,0.01
2013-5-13,55.7,47.6,37.1,33.1,30.0,25.9,84,52,33,29.98,29.75,21,5,24,0.00
2013-5-14,56.2,47.7,37.0,34.6,30.7,26.4,80,54,35,30.01,29.91,21,4,21,0.00
2013-5-15,63.5,50.9,34.2,50.5,38.4,29.6,90,66,32,30.01,29.61,21,4,24,0.00
2013-5-16,79.0,65.1,45.7,50.4,41.0,30.8,94,50,21,29.76,29.57,28,6,35,0.00
2013-5-17,66.7,57.5,48.3,43.2,40.6,35.0,81,55,32,30.16,29.75,18,5,21,0.00
2013-5-18,70.8,57.1,42.8,49.0,43.3,35.8,91,63,29,30.26,30.16,19,3,20,0.00
2013-5-19,68.5,55.1,45.9,53.2,48.9,44.0,95,81,50,30.31,30.17,18,3,19,0.05
2013-5-20,79.8,65.6,54.3,64.5,58.8,52.6,96,80,58,30.17,29.85,15,3,16,0.05
2013-5-21,75.0,58.6,49.2,65.4,55.5,47.5,96,90,71,29.98,29.82,20,4,21,0.03
2013-5-22,64.4,54.3,48.5,59.2,51.6,46.8,95,91,82,30.03,29.84,15,4,17,0.29
2013-5-23,75.2,62.4,52.0,67.9,59.1,50.6,96,90,77,29.88,29.75,26,4,27,0.08
2013-5-24,70.3,62.8,47.6,65.7,60.1,46.0,96,91,77,29.78,29.60,17,4,17,0.15
2013-5-25,49.1,45.6,39.7,47.3,43.9,36.7,95,94,89,29.77,29.65,20,6,22,0.02
2013-5-26,56.4,46.7,38.0,41.2,38.1,35.9,93,73,50,30.05,29.65,25,7,26,0.00
2013-5-27,69.9,55.3,37.9,43.8,38.4,32.4,93,59,27,30.12,30.01,25,4,26,0.00
2013-5-28,69.2,57.1,40.3,51.4,44.3,37.8,94,66,36,30.19,30.09,15,4,17,0.01
2013-5-29,68.3,61.0,57.0,62.9,57.8,50.7,96,89,77,30.13,29.92,12,2,12,0.00
2013-5-30,86.8,71.7,61.5,68.0,63.9,60.1,96,79,48,30.02,29.93,20,4,21,0.01
2013-5-31,92.3,79.8,65.3,70.4,64.9,61.7,90,64,37,30.03,29.87,19,4,19,0.00
2013-6-1,90.2,79.9,69.0,68.5,65.0,61.4,78,62,42,29.91,29.79,18,5,19,0.00
2013-6-2,88.0,77.2,68.3,69.0,65.5,61.4,87,69,42,29.82,29.65,33,7,33,0.00
2013-6-3,76.9,67.9,59.6,65.4,61.4,44.8,93,81,55,29.79,29.69,14,3,16,0.00
2013-6-4,69.3,60.0,48.7,47.5,44.0,40.6,75,57,40,30.04,29.77,18,5,22,0.00
2013-6-5,72.8,61.1,47.8,51.6,46.5,40.5,91,61,35,30.14,30.03,14,3,15,0.00
2013-6-6,72.3,63.0,52.7,54.8,49.1,44.7,83,61,44,30.14,30.03,19,3,19,0.00
2013-6-7,58.5,54.0,52.1,54.4,51.9,50.2,95,93,83,30.07,29.76,18,4,18,0.00
2013-6-8,76.8,61.0,51.6,63.1,55.7,50.2,96,84,59,29.94,29.56,18,5,18,0.00
2013-6-9,77.7,66.7,54.4,58.0,55.3,52.6,94,70,45,30.10,29.94,16,3,17,0.00
2013-6-10,66.5,60.3,53.6,57.6,55.1,51.7,94,84,66,30.15,29.97,14,4,14,0.00
2013-6-11,60.7,56.3,54.5,56.5,54.2,52.7,95,93,85,29.98,29.52,22,4,22,0.01
2013-6-12,67.5,60.8,54.7,56.8,54.0,52.0,96,79,60,29.76,29.50,25,5,30,0.00
2013-6-13,66.3,56.4,50.4,56.3,52.1,48.5,94,86,62,29.76,29.62,7,2,12,0.00
2013-6-14,73.8,59.1,50.7,58.0,52.4,49.0,95,80,46,29.70,29.59,12,2,14,0.01
2013-6-15,76.7,65.8,52.8,53.5,47.7,40.6,92,56,28,29.88,29.70,22,4,22,0.00
2013-6-16,74.2,65.9,54.9,61.2,53.3,46.8,82,65,45,29.88,29.65,15,3,17,0.00
2013-6-17,83.5,68.1,56.7,62.9,58.8,54.3,94,75,40,29.85,29.71,18,4,20,0.00
2013-6-18,71.9,61.5,56.7,62.2,58.0,55.0,95,89,70,29.89,29.83,17,2,17,0.00
2013-6-19,72.3,62.0,54.8,55.4,51.8,46.7,95,72,42,30.09,29.85,15,2,15,0.00
2013-6-20,77.0,65.1,49.1,56.0,50.3,45.1,93,63,35,30.21,30.08,14,2,15,0.00
2013-6-21,83.1,71.0,57.6,62.6,56.8,51.9,85,63,35,30.19,30.12,16,3,18,0.00
2013-6-22,82.8,72.3,61.8,64.5,59.8,56.1,82,66,45,30.16,30.04,16,4,16,0.00
2013-6-23,87.7,76.0,64.8,72.0,64.5,56.4,79,68,57,30.10,29.92,19,5,22,0.00
2013-6-24,91.3,79.3,69.5,72.7,69.1,65.8,91,72,51,29.96,29.80,16,5,19,0.00
2013-6-25,89.3,77.8,68.1,71.7,67.5,64.1,91,72,49,29.86,29.66,18,5,23,0.00
2013-6-26,81.3,73.4,66.5,71.5,67.8,64.7,94,83,64,29.80,29.66,13,2,14,0.00
2013-6-27,71.3,64.0,59.4,66.5,61.9,58.3,96,93,83,29.82,29.70,13,4,14,0.00
2013-6-28,81.2,69.2,57.8,71.7,65.4,56.7,96,88,70,29.71,29.43,25,6,25,0.00
2013-6-29,82.7,74.2,69.4,70.4,67.6,65.7,94,81,63,29.67,29.46,22,6,23,0.00
2013-6-30,83.8,75.6,68.3,72.8,68.8,65.7,92,80,63,29.87,29.66,17,4,17,0.00
2013-7-1,81.3,73.2,70.1,73.3,70.2,68.2,95,90,75,30.02,29.87,15,3,15,0.00
2013-7-2,81.7,71.0,59.5,73.4,67.2,58.0,95,88,68,30.16,30.01,13,4,15,0.00
2013-7-3,86.7,73.5,59.2,73.8,67.2,57.8,96,82,60,30.15,30.07,16,4,19,0.00
2013-7-4,91.0,81.3,71.7,74.0,72.1,69.4,93,75,55,30.14,30.02,16,4,19,0.00
2013-7-5,92.0,83.2,74.2,75.1,72.7,70.5,89,72,51,30.10,29.97,16,4,20,0.00
2013-7-6,89.2,81.5,74.1,73.6,70.2,63.3,90,70,49,30.01,29.91,19,4,19,0.00
2013-7-7,90.0,77.8,66.7,75.5,68.9,62.4,89,75,57,29.96,29.83,17,2,17,0.00
2013-7-8,82.5,74.2,63.9,73.8,69.6,61.8,94,86,74,30.02,29.84,15,3,18,0.07
2013-7-9,71.2,66.5,62.9,66.4,63.5,61.0,95,90,84,30.05,29.99,9,2,9,0.01
2013-7-10,84.1,72.4,65.1,74.7,68.6,62.8,96,88,72,30.02,29.73,20,4,21,0.01
2013-7-11,80.8,75.0,70.9,73.0,70.6,67.4,95,87,72,29.86,29.71,10,2,11,0.01
2013-7-12,74.0,69.2,65.4,68.6,59.5,54.8,94,72,54,30.15,29.86,20,4,20,0.00
2013-7-13,77.0,69.1,64.0,69.2,63.9,57.7,94,84,77,30.25,30.14,13,3,13,0.00
2013-7-14,88.9,77.2,67.2,73.5,69.9,65.6,96,80,53,30.24,30.14,11,2,12,0.00
2013-7-15,89.6,79.9,70.2,74.0,70.8,68.5,95,76,51,30.14,30.03,12,2,13,0.00
2013-7-16,91.0,79.4,68.3,72.0,67.7,64.5,92,69,44,30.11,30.04,14,3,15,0.00
2013-7-17,92.8,81.5,69.0,74.4,69.7,64.3,92,70,45,30.12,29.92,13,2,13,0.00
2013-7-18,90.2,80.2,74.7,74.5,70.7,67.3,86,74,49,29.95,29.88,18,4,19,0.00
2013-7-19,95.3,84.3,72.1,77.6,72.8,68.5,90,70,47,29.89,29.65,22,5,24,0.00
2013-7-20,90.9,82.0,73.5,76.2,72.9,65.0,87,75,55,29.75,29.58,18,4,22,0.21
2013-7-21,78.4,72.5,65.9,66.2,63.7,59.3,92,75,56,29.93,29.75,14,4,14,0.00
2013-7-22,80.3,70.7,64.3,69.2,65.5,62.8,96,85,59,29.96,29.83,16,4,16,0.00
2013-7-23,79.3,70.9,67.7,74.9,69.0,64.9,96,94,83,29.83,29.48,27,3,27,0.65
2013-7-24,82.5,74.2,64.3,71.5,66.3,53.1,96,78,57,29.91,29.52,16,3,19,0.02
2013-7-25,64.3,58.8,56.8,56.2,52.7,47.6,94,81,65,30.06,29.90,15,3,18,0.01
2013-7-26,69.0,63.5,57.9,66.6,61.0,56.2,95,92,83,30.01,29.88,14,3,15,0.01
2013-7-27,81.8,70.7,58.2,65.5,62.0,56.4,94,76,50,30.00,29.92,12,3,13,0.01
2013-7-28,78.0,69.2,63.9,70.8,65.4,61.8,94,88,75,29.97,29.90,14,3,14,0.01
2013-7-29,82.5,72.0,65.3,71.0,66.6,63.5,95,84,62,29.99,29.90,19,3,19,0.00
2013-7-30,79.5,70.3,59.5,65.5,59.4,54.0,96,71,44,30.04,29.97,14,3,16,0.01
2013-7-31,80.5,69.8,59.2,61.7,58.5,52.6,91,69,43,30.09,29.98,11,2,11,0.00
2013-8-1,79.6,70.1,60.9,65.2,61.8,59.2,95,76,53,29.99,29.82,19,3,22,0.00
2013-8-2,80.3,70.1,62.7,66.2,61.7,56.5,95,76,45,29.83,29.73,16,3,19,0.01
2013-8-3,77.4,69.3,63.5,63.3,61.5,59.7,92,77,58,29.81,29.72,17,3,20,0.00
2013-8-4,77.1,66.8,57.3,59.9,56.3,52.4,89,70,46,29.84,29.71,14,3,17,0.00
2013-8-5,73.7,62.9,51.7,53.3,48.3,40.8,92,62,31,30.00,29.83,19,4,20,0.00
2013-8-6,76.1,63.0,48.2,56.2,50.8,46.0,93,67,40,30.09,29.99,13,2,14,0.00
2013-8-7,79.0,66.8,53.0,60.1,54.2,50.0,94,67,39,30.13,30.04,14,3,15,0.03
2013-8-8,79.7,71.0,64.4,70.2,65.0,54.9,92,82,70,30.07,29.94,15,4,17,0.02
2013-8-9,72.2,71.4,70.8,70.4,68.6,67.6,94,91,89,29.97,29.84,14,4,16,0.01
2013-8-21,86.2,73.8,60.2,66.3,62.6,57.9,93,71,46,30.08,29.97,8,2,13,0.00
2013-8-22,85.0,74.1,65.7,71.5,66.1,61.6,90,77,51,29.98,29.76,8,4,16,0.00
2013-8-23,78.1,71.1,63.7,68.0,58.9,48.5,92,67,41,30.08,29.76,8,4,16,0.00
2013-8-24,75.4,63.8,52.3,51.6,47.7,42.7,85,58,34,30.28,30.08,8,2,14,0.00
2013-8-25,81.1,66.6,50.7,56.1,51.3,47.5,91,62,34,30.31,30.13,9,2,19,0.00
2013-8-26,78.3,70.7,63.6,66.2,61.3,55.1,82,72,61,30.13,29.81,11,4,19,0.00
2013-8-27,82.0,73.1,65.6,68.8,65.8,62.5,94,79,58,29.84,29.77,12,3,15,0.32
2013-8-28,82.0,68.8,60.7,68.3,63.2,59.3,96,83,61,29.93,29.80,15,2,17,0.00
2013-8-29,64.1,62.7,60.6,62.6,59.6,56.0,95,90,84,30.02,29.90,14,3,19,0.00
2013-8-30,81.8,69.3,59.4,66.8,62.2,56.6,91,79,59,29.98,29.76,15,3,15,0.00
2013-8-31,79.2,73.1,68.2,72.5,69.2,65.5,95,88,78,29.77,29.72,14,3,14,0.07
2013-9-1,79.3,72.5,68.5,73.6,69.5,65.7,94,90,81,29.83,29.73,13,3,13,0.05
2013-9-2,78.5,73.4,71.2,73.5,70.1,67.9,94,90,79,29.82,29.65,15,2,16,0.01
2013-9-3,79.1,72.3,63.1,70.2,66.6,56.4,95,83,66,29.76,29.63,14,3,18,0.00
2013-9-4,78.8,67.3,56.6,59.6,55.7,52.6,92,69,44,29.87,29.75,19,3,20,0.00
2013-9-5,69.0,61.9,50.7,59.6,50.6,40.4,91,69,38,30.09,29.80,14,2,14,0.00
2013-9-6,69.1,56.0,41.8,45.0,42.0,36.7,92,62,37,30.19,30.03,14,2,14,0.00
2013-9-7,77.6,62.9,48.9,56.6,49.4,43.8,83,64,39,30.04,29.79,15,3,16,0.00
2013-9-8,71.3,62.5,50.6,60.5,51.2,39.4,93,69,39,30.05,29.68,22,4,22,0.00
2013-9-9,67.5,55.8,40.9,49.4,43.4,38.4,91,65,41,30.19,30.04,15,3,17,0.00
2013-9-10,74.3,65.2,55.1,68.8,60.6,49.1,93,85,77,30.10,29.96,17,3,21,0.00
2013-9-11,93.5,80.1,68.6,75.9,70.9,65.0,95,76,49,30.00,29.87,18,4,23,0.00
2013-9-12,86.4,76.4,65.6,73.6,68.7,63.9,95,78,59,29.91,29.61,24,4,27,0.00
2013-9-13,77.3,66.5,58.2,67.4,62.5,52.7,96,87,65,29.70,29.50,13,2,14,0.00
2013-9-14,65.0,59.9,55.4,53.9,51.9,50.5,86,75,64,29.93,29.70,13,4,15,0.00
2013-9-15,60.5,60.5,60.5,51.1,51.1,51.1,71,71,71,29.93,29.93,2,2,4,0.00
2013-9-16,60.5,60.5,60.5,51.1,51.1,51.1,71,71,71,29.93,29.93,2,2,4,0.00
2013-9-17,60.5,60.5,60.5,51.1,51.1,51.1,71,71,71,29.93,29.93,2,2,4,0.00
2013-9-18,60.5,60.5,60.5,51.1,51.1,51.1,71,71,71,29.93,29.93,2,2,4,0.00
2013-9-19,78.0,64.1,47.6,56.1,51.5,44.5,91,66,39,30.08,29.93,8,2,9,0.00
2013-9-20,77.9,61.9,48.3,57.8,53.0,46.7,95,75,43,30.02,29.93,11,2,12,0.00
2013-9-21,74.2,63.9,50.8,64.4,58.3,48.8,95,83,60,29.97,29.67,23,5,27,0.00
2013-9-22,70.1,63.2,51.3,65.8,55.6,42.7,94,78,51,29.78,29.54,24,6,25,0.00
2013-9-23,60.2,51.5,43.2,44.3,40.9,38.3,85,68,54,29.95,29.77,18,5,22,0.00
2013-9-24,65.1,51.0,39.7,45.2,41.0,36.7,91,71,44,29.94,29.75,13,3,22,0.00
2013-9-25,64.8,52.9,43.3,49.9,45.6,40.6,91,77,57,29.93,29.82,13,2,13,0.00
2013-9-26,65.5,56.7,51.8,50.3,47.6,45.0,87,73,53,30.07,29.92,11,2,11,0.00
2013-9-27,64.5,56.9,49.0,52.6,50.2,47.1,94,79,62,30.20,30.06,12,2,14,0.00
2013-9-28,69.9,56.5,44.4,56.4,49.7,42.8,96,80,53,30.28,30.19,21,2,21,0.00
2013-9-29,66.0,52.5,44.9,52.4,47.4,43.0,96,84,52,30.21,30.06,12,2,15,0.00
2013-9-30,66.3,53.9,46.0,52.5,48.0,44.2,96,83,53,30.08,29.91,11,1,12,0.00
2013-10-1,74.8,58.4,43.6,56.0,49.6,42.0,96,76,43,29.92,29.78,13,2,14,0.00
2013-10-2,78.6,64.6,51.7,60.6,56.2,49.9,95,76,53,29.89,29.76,17,4,21,0.00
2013-10-3,75.8,62.3,50.9,55.8,50.8,44.3,94,69,36,30.03,29.89,9,2,10,0.00
2013-10-4,61.8,56.2,49.0,57.1,52.6,46.5,95,88,78,30.03,29.97,7,1,8,0.00
2013-10-5,57.6,56.0,55.3,55.7,54.6,53.9,95,95,93,30.06,29.99,4,0,5,0.00
2013-10-7,76.3,68.7,56.5,69.3,64.2,55.4,96,86,72,29.99,29.75,33,8,39,0.00
2013-10-8,53.7,51.0,49.8,46.8,45.6,44.8,83,82,78,30.09,30.03,8,3,9,0.00
2013-10-26,54.5,41.7,26.8,34.5,28.4,24.0,92,62,32,30.10,29.82,13,4,25,0.00
2013-10-27,52.4,46.3,39.2,38.0,33.5,28.4,85,62,41,30.00,29.75,12,5,22,0.00
2013-10-28,56.3,43.2,30.7,34.7,29.9,23.3,87,61,38,30.30,30.00,14,4,28,0.00
2013-10-29,47.5,35.3,25.9,29.0,23.5,17.8,87,65,31,30.40,30.29,7,1,11,0.00
2013-10-30,50.8,37.3,28.4,40.5,32.7,24.8,93,84,63,30.31,30.14,6,0,11,0.03
2013-10-31,60.9,45.9,29.8,57.2,43.5,28.3,95,91,82,30.19,29.74,10,2,17,0.12
2013-11-1,70.2,64.2,59.5,61.3,57.4,52.5,93,79,65,29.73,29.39,32,8,37,0.08
2013-11-2,65.6,54.4,43.6,52.2,44.2,40.0,93,71,40,29.68,29.53,10,1,16,0.02
2013-11-3,37.2,33.9,30.8,17.1,15.7,14.2,56,47,39,30.37,30.23,11,4,14,0.00
2013-11-4,40.9,31.6,23.7,19.5,16.7,13.2,80,56,33,30.65,30.36,15,2,15,0.00
2013-11-5,49.4,36.1,22.4,34.0,26.3,18.0,86,69,44,30.66,30.45,13,2,13,0.00
2013-11-6,60.3,48.2,39.6,48.1,39.2,32.4,85,72,50,30.45,29.98,18,4,20,0.00
2013-11-7,64.7,53.2,37.7,56.3,48.1,30.5,92,83,68,29.99,29.61,23,5,23,0.16
2013-11-8,45.6,38.6,28.5,32.9,27.3,22.2,81,64,51,29.97,29.76,24,6,25,0.00
2013-11-10,43.4,41.8,40.3,33.4,32.3,30.6,73,69,61,29.79,29.74,20,4,24,0.05
2013-11-11,50.4,43.9,37.3,31.5,27.6,24.3,69,53,36,30.04,29.78,21,5,21,0.00
2013-11-12,47.5,34.3,25.9,37.4,23.3,14.5,89,65,52,30.13,29.82,20,5,21,0.12
2013-11-13,34.3,27.6,21.7,15.5,13.3,9.8,73,56,37,30.24,30.09,18,4,19,0.00
2013-11-14,49.7,36.8,27.7,24.8,19.6,15.1,62,50,34,30.09,29.97,19,4,20,0.00
2013-11-15,60.7,45.2,30.2,25.5,19.3,12.6,65,39,15,30.13,30.03,14,3,20,0.00
2013-11-16,59.9,44.1,32.0,32.0,28.4,21.0,81,57,25,30.26,30.12,5,1,11,0.00
2013-11-17,51.2,49.9,47.7,50.1,48.5,46.3,96,95,94,29.98,29.78,7,1,7,0.02
2013-11-18,64.1,57.4,46.9,59.9,46.4,31.0,96,69,45,29.78,29.46,24,5,26,0.16
2013-11-19,47.6,38.2,30.0,30.9,21.3,15.4,59,51,40,30.22,29.59,29,9,30,0.00
2013-11-20,39.9,32.0,27.2,15.4,14.2,11.3,58,48,31,30.55,30.22,17,6,19,0.00
2013-11-21,46.7,32.6,18.0,28.8,19.3,13.4,83,60,34,30.61,30.30,11,2,14,0.00
2013-11-22,44.4,41.4,38.7,42.8,37.9,29.1,95,87,67,30.30,29.86,5,1,6,0.16
2013-11-23,45.1,38.5,28.3,43.7,26.0,15.4,96,62,34,29.84,29.70,20,8,27,0.00
2013-11-24,21.9,20.5,18.8,-0.9,-2.5,-4.7,37,35,34,30.14,30.02,29,10,30,0.00
2013-11-25,31.6,23.7,14.9,15.1,1.3,-10.4,55,38,18,30.31,30.13,21,6,23,0.00
2013-11-26,38.3,33.1,29.2,32.8,20.0,14.1,93,59,47,30.27,29.98,14,3,14,0.12
2013-11-27,61.8,49.5,34.7,59.2,47.4,31.5,96,92,80,29.98,29.15,27,8,30,1.19
2013-11-28,36.2,29.6,22.7,32.0,15.6,5.4,85,57,36,30.37,29.38,31,9,31,0.07
2013-11-29,31.4,25.4,19.5,16.2,10.9,2.3,79,55,33,30.61,30.36,16,3,16,0.00
2013-11-30,31.8,23.1,12.5,21.6,13.4,6.7,81,67,53,30.73,30.36,10,1,12,0.00
2013-12-1,35.3,34.5,34.0,34.0,33.2,32.7,95,95,94,30.00,29.95,6,2,7,0.04
2013-12-2,37.2,35.5,34.2,35.8,34.2,32.9,96,95,94,29.95,29.85,6,2,7,0.01
2013-12-3,46.7,36.8,30.3,36.1,32.7,27.4,95,86,60,29.88,29.78,10,3,11,0.00
2013-12-4,40.7,32.6,27.3,29.0,26.6,24.8,93,80,56,30.14,29.88,13,2,14,0.01
2013-12-5,48.9,37.6,26.6,47.8,34.9,24.2,96,90,81,30.15,29.85,14,1,14,0.00
2013-12-6,54.8,49.1,41.1,53.1,44.1,27.4,96,84,51,30.01,29.78,14,3,14,0.04
2013-12-8,27.1,26.8,26.2,17.6,16.9,15.2,69,66,61,30.51,30.43,5,1,5,0.00
2013-12-9,36.4,29.8,23.3,35.1,27.2,14.7,96,90,60,30.44,29.82,8,2,10,0.10
2013-12-10,33.9,30.2,23.9,30.6,26.1,13.4,95,85,59,29.93,29.71,23,4,23,0.02
2013-12-11,30.6,24.6,18.8,19.3,15.9,13.6,84,70,54,30.14,29.93,22,5,25,0.00
2013-12-12,23.2,18.9,10.7,17.0,6.1,-1.0,85,59,35,30.21,30.00,21,4,23,0.00
2013-12-13,26.9,20.5,14.9,17.3,10.2,5.8,78,64,53,30.16,29.92,22,5,23,0.01
2013-12-15,24.6,23.5,22.0,22.4,20.5,18.7,91,88,86,29.68,29.59,0,0,0,0.00
2013-12-16,25.2,21.8,14.0,20.4,12.7,6.1,90,68,49,30.14,29.68,23,3,23,0.00
2013-12-17,17.5,10.5,0.5,15.1,5.8,-3.9,90,81,66,30.23,29.89,14,2,16,0.00
2013-12-18,33.2,23.8,13.9,20.7,17.5,10.9,94,77,57,30.01,29.81,18,5,21,0.00
2013-12-19,41.6,31.4,23.8,25.9,22.5,18.6,84,70,48,30.05,29.89,20,4,24,0.14
2013-12-20,52.8,39.4,27.4,35.8,30.0,24.2,89,71,49,30.06,29.83,18,2,18,0.41
2013-12-22,33.2,32.2,31.5,31.9,31.0,30.2,96,95,95,29.97,29.91,7,2,8,0.01
2013-12-23,35.7,31.6,29.9,34.7,30.6,28.8,96,96,95,30.03,29.89,9,2,10,0.28
2013-12-24,35.7,30.7,24.8,34.7,20.4,12.1,96,66,51,30.14,29.98,16,4,16,0.19
2013-12-25,24.9,17.1,11.9,13.7,4.4,-1.2,78,57,43,30.49,30.13,18,4,21,0.00
2013-12-26,30.6,22.3,13.6,27.1,18.2,8.2,92,84,74,30.45,30.02,9,1,10,0.00
2013-12-27,32.1,26.0,20.6,21.0,18.9,17.0,89,75,59,30.21,30.12,17,4,18,0.01
2013-12-29,37.0,35.7,34.3,35.7,34.1,32.5,95,94,93,29.52,29.36,18,7,21,0.33
2013-12-30,40.9,31.5,15.9,34.2,22.4,5.6,94,71,42,30.11,29.45,25,5,25,0.36
2013-12-31,23.3,16.9,11.1,13.8,3.9,-6.0,75,56,45,30.11,29.96,14,3,17,0.00
2014-1-1,25.2,19.3,11.0,11.6,7.1,4.1,77,59,44,30.32,30.11,18,3,19,0.00
2014-1-2,19.1,9.4,-1.3,13.5,5.5,-5.2,95,84,69,30.30,29.82,21,6,26,0.00